Pine Bluff, AR

6:26 AM CDT on September 26, 2016 (GMT -0500)
Grider

Weather History for KPBF - April, 2014

Change the Weather History Date:

Sunday, April 13, 2014

  Actual Average Record
Temperature  
Mean Temperature 67 °F 62 °F  
Max Temperature 75 °F 74 °F 90 °F (1972)
Min Temperature 58 °F 51 °F 31 °F (1940)
Degree Days  
Heating Degree Days 0 5  
Month to date heating degree days 73 78  
Since 1 July heating degree days 3326 2813  
Cooling Degree Days 2 2  
Month to date cooling degree days 22 20  
Year to date cooling degree days 22 40  
Growing Degree Days 18 (Base 50)    
Moisture  
Dew Point 61 °F    
Average Humidity 78    
Maximum Humidity 87    
Minimum Humidity 68    
Precipitation  
Precipitation 0.81 in 0.15 in 3.10 in (1896)
Month to date precipitation 2.40 2.11  
Year to date precipitation 12.29 15.33  
Snow  
Snow 0.00 in 0.00 in - ()
Month to date snowfall 0.0 0.0  
Since 1 July snowfall 3.7 3.1  
Snow Depth 0.00 in    
Sea Level Pressure  
Sea Level Pressure 29.83 in    
Wind  
Wind Speed 13 mph (South)    
Max Wind Speed 36 mph    
Max Gust Speed 48 mph    
Visibility 10 miles    
Events Rain , Thunderstorm    
T = Trace of Precipitation, MM = Missing Value Source: NWS Daily Summary

Daily Weather History Graph

Daily Weather History Graph

Search for Another Location

Airport or City:

Trip Planner

Search our weather history database for the weather conditions in past years. The results will help you decide how hot, cold, wet, or windy it might be!

Date:

Astronomy

Apr. 13, 2014 Rise Set
Actual Time 6:39 AM CDT 7:37 PM CDT
Civil Twilight 6:13 AM CDT 8:03 PM CDT
Nautical Twilight 5:43 AM CDT 8:34 PM CDT
Astronomical Twilight 5:11 AM CDT 9:05 PM CDT
Moon 6:19 PM CDT (4/13) 5:33 AM CDT (4/13)
Length of Visible Light 13h 50m
Length of Day
12h 58m
Waxing Gibbous, 97% of the Moon is Illuminated
Apr 13
Waxing Gibbous
Apr 15
Full
Apr 22
Last Quarter
Apr 29
New
May 6
First Quarter

Hourly Weather History & Observations

Time (CDT) Temp. Dew Point Humidity Pressure Visibility Wind Dir Wind Speed Gust Speed Precip Events Conditions
12:53 AM 66.0 °F 55.9 °F 70% 29.90 in 10.0 mi SSW 10.4 mph - N/A   Clear
1:53 AM 63.0 °F 55.9 °F 78% 29.91 in 10.0 mi SSE 9.2 mph - N/A   Clear
2:29 AM 64.4 °F 57.2 °F 77% 29.90 in 10.0 mi South 8.1 mph - N/A   Mostly Cloudy
2:53 AM 63.0 °F 57.0 °F 81% 29.89 in 10.0 mi South 8.1 mph - N/A   Mostly Cloudy
3:07 AM 62.6 °F 57.2 °F 82% 29.89 in 10.0 mi South 8.1 mph - N/A   Scattered Clouds
3:53 AM 63.0 °F 57.0 °F 81% 29.89 in 10.0 mi South 5.8 mph - N/A   Partly Cloudy
4:53 AM 63.0 °F 57.9 °F 84% 29.88 in 10.0 mi South 11.5 mph - N/A   Clear
5:53 AM 64.0 °F 59.0 °F 84% 29.88 in 10.0 mi South 10.4 mph - N/A   Clear
6:53 AM 64.0 °F 60.1 °F 87% 29.90 in 10.0 mi South 9.2 mph - N/A   Clear
7:12 AM 64.4 °F 60.8 °F 88% 29.91 in 10.0 mi South 8.1 mph - N/A   Mostly Cloudy
7:53 AM 64.9 °F 61.0 °F 87% 29.91 in 10.0 mi South 9.2 mph - N/A   Scattered Clouds
8:53 AM 66.9 °F 61.0 °F 81% 29.91 in 10.0 mi South 15.0 mph 20.7 mph N/A   Partly Cloudy
9:53 AM 68.0 °F 61.0 °F 78% 29.90 in 10.0 mi South 15.0 mph - N/A   Mostly Cloudy
10:43 AM 69.8 °F 60.8 °F 73% 29.92 in 10.0 mi South 15.0 mph 23.0 mph N/A   Overcast
10:53 AM 69.1 °F 61.0 °F 75% 29.91 in 10.0 mi South 12.7 mph 21.9 mph N/A   Overcast
11:53 AM 66.9 °F 63.0 °F 87% 29.91 in 10.0 mi South 11.5 mph - 0.00 in Rain Light Rain
12:07 PM 68.0 °F 62.6 °F 83% 29.90 in 10.0 mi SSE 13.8 mph - N/A   Mostly Cloudy
12:53 PM 72.0 °F 63.0 °F 73% 29.87 in 10.0 mi South 15.0 mph - N/A   Mostly Cloudy
1:53 PM 72.0 °F 63.0 °F 73% 29.84 in 10.0 mi South 16.1 mph 25.3 mph N/A   Overcast
2:01 PM 73.4 °F 62.6 °F 69% 29.84 in 10.0 mi South 19.6 mph 23.0 mph N/A   Mostly Cloudy
2:53 PM 73.9 °F 63.0 °F 68% 29.81 in 10.0 mi South 20.7 mph 26.5 mph N/A   Mostly Cloudy
3:53 PM 73.9 °F 64.0 °F 71% 29.77 in 10.0 mi South 17.3 mph 27.6 mph N/A   Mostly Cloudy
4:53 PM 73.9 °F 63.0 °F 68% 29.75 in 10.0 mi South 17.3 mph 24.2 mph 0.00 in   Mostly Cloudy
5:53 PM 73.0 °F 63.0 °F 71% 29.72 in 10.0 mi SSE 15.0 mph 21.9 mph 0.00 in Rain Light Rain
6:53 PM 72.0 °F 63.0 °F 73% 29.68 in 10.0 mi SSE 15.0 mph 21.9 mph 0.01 in Rain Light Rain
7:53 PM 69.1 °F 63.0 °F 81% 29.67 in 10.0 mi SSE 17.3 mph 26.5 mph 0.02 in   Scattered Clouds
8:53 PM 70.0 °F 61.0 °F 73% 29.70 in 10.0 mi South 16.1 mph 25.3 mph N/A   Mostly Cloudy
9:53 PM 69.1 °F 59.0 °F 70% 29.72 in 10.0 mi SSW 9.2 mph - N/A   Overcast
10:53 PM 68.0 °F 60.1 °F 76% 29.72 in 10.0 mi South 9.2 mph - N/A   Overcast
11:10 PM 68.0 °F 60.8 °F 78% 29.72 in 10.0 mi South 10.4 mph - N/A Thunderstorm Overcast
11:53 PM 69.1 °F 61.0 °F 75% 29.70 in 10.0 mi SSW 12.7 mph - N/A Thunderstorm Mostly Cloudy